DW1564 Weather Reports


time (UTC)temp
F
wind
direction
speed
knots
gust
knots
rain 1hr
in
rain 24hr
in
rain mn
in
humidity
%
barometer
mb
20260505004617 39 143 0.0 7.8 0.01 0.03 0.02 87 999.7
20260505003058 39 133 2.6 7.8 0.01 0.03 0.02 88 999.6
20260505001555 38 126 0.9 4.3 0.02 0.03 0.02 86 1000.1
20260505000034 39 126 0.0 0.0 0.01 0.02 0.01 85 1000.6
20260504234530 40 126 0.0 0.9 0.02 0.02 0.01 81 1000.1
20260504233008 42 126 0.0 0.0 0.02 0.02 0.01 80 999.6
20260504231506 42 126 0.0 0.0 0.01 0.01 0.01 79 999.0
20260504230052 42 126 0.0 0.0 0.01 0.01 0.01 77 999.0
20260504224549 44 126 0.0 0.0 0.00 0.00 0.00 70 998.7
20260504223053 48 126 0.0 0.0 0.00 0.00 0.00 63 998.5
20260504221548 52 126 0.0 1.7 0.00 0.00 0.00 54 998.4
20260504214544 54 126 0.0 3.5 0.00 0.00 0.00 40 997.9
20260504213045 54 126 0.0 1.7 0.00 0.00 0.00 40 998.1
20260504211541 54 126 0.0 3.5 0.00 0.00 0.00 39 997.9
20260504210037 56 126 0.0 4.3 0.00 0.00 0.00 36 998.3
20260504204553 56 126 0.0 6.1 0.00 0.00 0.00 37 998.2
20260504203018 56 132 0.0 7.8 0.00 0.00 0.00 41 998.6
20260504201516 55 153 0.9 6.1 0.00 0.00 0.00 44 998.9
20260504200111 53 175 0.0 3.5 0.00 0.00 0.00 44 999.2
20260504194557 52 173 0.0 1.7 0.00 0.00 0.00 43 999.2
20260504193038 52 173 0.0 1.7 0.00 0.00 0.00 41 999.2
20260504191540 52 173 0.9 4.3 0.00 0.00 0.00 41 999.1
20260504190019 53 175 0.9 3.5 0.00 0.00 0.00 38 999.2
20260504184523 56 175 0.0 2.6 0.00 0.00 0.00 35 999.2
20260504183002 56 175 0.9 4.3 0.00 0.00 0.00 38 999.0
20260504181609 52 178 0.0 8.7 0.00 0.00 0.00 33 999.4
20260504180040 53 152 0.9 7.0 0.00 0.00 0.00 31 999.6
20260504174539 54 149 0.0 2.6 0.00 0.00 0.00 29 999.7
20260504173021 56 149 0.0 3.5 0.00 0.00 0.00 29 999.9
20260504171521 57 149 0.0 0.9 0.00 0.00 0.00 26 999.8
20260504170104 57 150 0.9 4.3 0.00 0.00 0.00 27 999.8
20260504081523 44 355 0.0 2.6 0.00 0.00 0.00 37 1002.5
20260504044546 46 355 0.0 0.9 0.00 0.00 0.00 34 1004.0
20260504043037 47 355 0.0 0.0 0.00 0.00 0.00 37 1004.1
20260504041525 47 355 0.0 0.0 0.00 0.00 0.00 36 1004.2
20260504040010 47 355 0.0 0.0 0.00 0.00 0.00 35 1004.4
20260504034507 47 355 0.0 0.0 0.00 0.00 0.00 36 1004.2
20260504033049 47 355 0.0 0.0 0.00 0.00 0.00 39 1004.1
20260504031548 48 355 0.0 0.0 0.00 0.00 0.00 39 1004.2
20260504030027 49 355 0.0 0.0 0.00 0.00 0.00 37 1004.3
20260504024524 49 355 0.0 0.0 0.00 0.00 0.00 36 1004.2
20260504023006 50 355 0.0 0.0 0.00 0.00 0.00 37 1004.4
20260504021502 50 355 0.0 0.0 0.00 0.00 0.00 35 1004.4
20260504020139 51 355 0.0 0.0 0.00 0.00 0.00 34 1004.1
20260504014555 52 355 0.0 0.0 0.00 0.00 0.00 32 1004.0
20260504013047 52 355 0.0 0.9 0.00 0.00 0.00 32 1004.1
20260504011520 54 355 0.0 0.9 0.00 0.00 0.00 30 1004.0
20260504010019 54 355 0.0 0.9 0.00 0.00 0.00 28 1003.9
20260504004635 54 355 0.0 1.7 0.00 0.00 0.00 27 1003.8